Location: Bothwell
(42.3833°S, 147.0000°E)
Time: 19:50:26
(UTC+11:00)

BEESAT - Pass Details

Date: 04 October 2022
Orbit: 699 x 706 km, 98.5° (Epoch: 25 November)

Event Time Altitude Azimuth Distance (km) Brightness Sun altitude
Exits shadow 21:21:36 18° 351° (N) 1,722 ? -21.9°
Maximum altitude 21:25:02 51° 280° (W) 898 ? -22.4°
Drops below altitude 10° 21:29:46 10° 204° (SSW) 2,212 ? -23.2°
Sets 21:32:07 0° 198° (SSW) 3,140 ? -23.6°
